Time,TemperatureF,DewpointF,PressureIn,WindDirection,WindDirectionDegrees,WindSpeedMPH,WindSpeedGustMPH,Humidity,HourlyPrecipIn,Conditions,Clouds,dailyrainin,SoftwareType,DateUTC
2013-09-16 00:01:00,83.7,56.0,27.22,North,360,1.9,4.0,39,0.00,,,0.00,Rainwise IP-100,2013-09-16 07:01:00,
2013-09-16 00:06:00,84.0,56.0,27.22,NNE,22,1.6,5.0,39,0.00,,,0.00,Rainwise IP-100,2013-09-16 07:06:00,
2013-09-16 00:11:00,84.3,56.0,27.21,NE,45,1.4,6.0,38,0.00,,,0.00,Rainwise IP-100,2013-09-16 07:11:00,
2013-09-16 00:16:00,84.5,56.0,27.21,ENE,67,2.8,5.0,38,0.00,,,0.00,Rainwise IP-100,2013-09-16 07:16:00,
2013-09-16 00:21:00,84.5,56.0,27.22,NNE,22,1.4,6.0,38,0.00,,,0.00,Rainwise IP-100,2013-09-16 07:21:00,
2013-09-16 00:26:00,84.5,56.0,27.22,NNE,22,2.3,5.0,38,0.00,,,0.00,Rainwise IP-100,2013-09-16 07:26:00,
2013-09-16 00:31:00,84.4,56.0,27.22,NNE,22,2.3,4.0,38,0.00,,,0.00,Rainwise IP-100,2013-09-16 07:31:00,
2013-09-16 00:36:00,84.3,56.0,27.22,NNE,22,2.1,4.0,38,0.00,,,0.00,Rainwise IP-100,2013-09-16 07:36:00,
2013-09-16 00:41:00,84.1,56.0,27.21,NNE,22,2.3,4.0,38,0.00,,,0.00,Rainwise IP-100,2013-09-16 07:41:00,
2013-09-16 00:46:00,83.8,56.0,27.21,NNE,22,3.0,6.0,39,0.00,,,0.00,Rainwise IP-100,2013-09-16 07:46:00,
2013-09-16 00:51:00,83.6,56.0,27.22,NE,45,4.2,5.0,39,0.00,,,0.00,Rainwise IP-100,2013-09-16 07:51:00,
2013-09-16 00:52:00,83.7,56.0,27.21,NE,45,1.2,6.0,39,0.00,,,0.00,Rainwise IP-100,2013-09-16 07:52:00,
2013-09-16 00:57:00,83.7,56.0,27.21,NNE,22,4.7,4.7,39,0.00,,,0.00,Rainwise IP-100,2013-09-16 07:57:00,
2013-09-16 01:02:00,83.8,56.0,27.21,ENE,67,4.7,7.0,39,0.00,,,0.00,Rainwise IP-100,2013-09-16 08:02:00,
2013-09-16 01:07:00,84.1,56.0,27.21,NE,45,2.1,9.0,39,0.00,,,0.00,Rainwise IP-100,2013-09-16 08:07:00,
2013-09-16 01:12:00,84.3,56.0,27.22,NNE,22,0.0,10.0,39,0.00,,,0.00,Rainwise IP-100,2013-09-16 08:12:00,
2013-09-16 01:17:00,84.1,56.0,27.21,ENE,67,7.0,8.0,39,0.00,,,0.00,Rainwise IP-100,2013-09-16 08:17:00,
2013-09-16 01:22:00,83.9,56.0,27.21,NNE,22,0.0,8.0,39,0.00,,,0.00,Rainwise IP-100,2013-09-16 08:22:00,
2013-09-16 01:27:00,83.7,57.0,27.22,NNW,337,0.0,8.0,40,0.00,,,0.00,Rainwise IP-100,2013-09-16 08:27:00,
2013-09-16 01:32:00,83.5,56.0,27.22,NNE,22,2.3,8.0,40,0.00,,,0.00,Rainwise IP-100,2013-09-16 08:32:00,
2013-09-16 01:37:00,83.5,56.0,27.21,NNE,22,3.5,11.0,40,0.00,,,0.00,Rainwise IP-100,2013-09-16 08:37:00,
2013-09-16 01:42:00,83.4,57.0,27.22,NNE,22,4.2,9.0,41,0.00,,,0.00,Rainwise IP-100,2013-09-16 08:42:00,
2013-09-16 01:47:00,83.4,57.0,27.22,North,360,9.1,9.1,41,0.00,,,0.00,Rainwise IP-100,2013-09-16 08:47:00,
2013-09-16 01:52:00,83.3,57.0,27.21,NE,45,5.1,10.0,41,0.00,,,0.00,Rainwise IP-100,2013-09-16 08:52:00,
2013-09-16 01:57:00,83.1,57.0,27.21,NE,45,1.6,9.0,41,0.00,,,0.00,Rainwise IP-100,2013-09-16 08:57:00,
2013-09-16 02:02:00,83.0,57.0,27.21,North,360,7.0,9.0,41,0.00,,,0.00,Rainwise IP-100,2013-09-16 09:02:00,
2013-09-16 02:07:00,82.9,57.0,27.21,North,360,4.7,9.0,42,0.00,,,0.00,Rainwise IP-100,2013-09-16 09:07:00,
2013-09-16 02:12:00,82.9,57.0,27.21,ENE,67,3.3,7.0,42,0.00,,,0.00,Rainwise IP-100,2013-09-16 09:12:00,
2013-09-16 02:17:00,82.7,57.0,27.21,North,360,0.0,5.0,42,0.00,,,0.00,Rainwise IP-100,2013-09-16 09:17:00,
2013-09-16 02:22:00,82.6,57.0,27.21,ENE,67,2.8,11.0,42,0.00,,,0.00,Rainwise IP-100,2013-09-16 09:22:00,
2013-09-16 02:27:00,82.6,57.0,27.21,ENE,67,6.3,13.0,42,0.00,,,0.00,Rainwise IP-100,2013-09-16 09:27:00,
2013-09-16 02:32:00,82.5,57.0,27.21,NNE,22,1.9,8.0,42,0.00,,,0.00,Rainwise IP-100,2013-09-16 09:32:00,
2013-09-16 02:37:00,82.4,57.0,27.21,NE,45,2.8,7.0,42,0.00,,,0.00,Rainwise IP-100,2013-09-16 09:37:00,
2013-09-16 02:42:00,82.3,57.0,27.22,NNW,337,2.1,10.0,43,0.00,,,0.00,Rainwise IP-100,2013-09-16 09:42:00,
2013-09-16 02:47:00,82.2,57.0,27.21,NNE,22,3.3,6.0,43,0.00,,,0.00,Rainwise IP-100,2013-09-16 09:47:00,
2013-09-16 02:52:00,82.1,57.0,27.21,NNW,337,1.9,10.0,43,0.00,,,0.00,Rainwise IP-100,2013-09-16 09:52:00,
2013-09-16 02:57:00,82.0,57.0,27.22,NNW,337,4.0,7.0,43,0.00,,,0.00,Rainwise IP-100,2013-09-16 09:57:00,
2013-09-16 03:02:00,81.8,57.0,27.21,ENE,67,4.7,6.0,43,0.00,,,0.00,Rainwise IP-100,2013-09-16 10:02:00,
2013-09-16 03:07:00,81.9,57.0,27.21,NE,45,1.2,6.0,43,0.00,,,0.00,Rainwise IP-100,2013-09-16 10:07:00,
2013-09-16 03:12:00,82.0,57.0,27.21,NE,45,1.6,8.0,43,0.00,,,0.00,Rainwise IP-100,2013-09-16 10:12:00,
2013-09-16 03:17:00,82.0,57.0,27.21,ESE,112,1.6,7.0,43,0.00,,,0.00,Rainwise IP-100,2013-09-16 10:17:00,
2013-09-16 03:22:00,81.9,57.0,27.21,NNE,22,4.4,7.0,43,0.00,,,0.00,Rainwise IP-100,2013-09-16 10:22:00,
2013-09-16 03:27:00,81.9,57.0,27.21,ENE,67,2.3,11.0,43,0.00,,,0.00,Rainwise IP-100,2013-09-16 10:27:00,
2013-09-16 03:32:00,81.9,57.0,27.21,ENE,67,1.2,8.0,43,0.00,,,0.00,Rainwise IP-100,2013-09-16 10:32:00,
2013-09-16 03:37:00,81.7,57.0,27.22,ENE,67,3.0,7.0,43,0.00,,,0.00,Rainwise IP-100,2013-09-16 10:37:00,
2013-09-16 03:42:00,81.6,57.0,27.22,NNW,337,1.9,6.0,44,0.00,,,0.00,Rainwise IP-100,2013-09-16 10:42:00,
2013-09-16 03:47:00,81.6,57.0,27.21,NE,45,6.3,12.0,44,0.00,,,0.00,Rainwise IP-100,2013-09-16 10:47:00,
2013-09-16 03:52:00,81.7,57.0,27.21,North,360,3.5,12.0,44,0.00,,,0.00,Rainwise IP-100,2013-09-16 10:52:00,
2013-09-16 03:57:00,81.6,57.0,27.21,NNE,22,8.2,8.2,44,0.00,,,0.00,Rainwise IP-100,2013-09-16 10:57:00,
2013-09-16 04:02:00,81.5,57.0,27.22,NE,45,3.3,9.0,44,0.00,,,0.00,Rainwise IP-100,2013-09-16 11:02:00,
2013-09-16 04:07:00,81.4,57.0,27.22,North,360,4.2,8.0,44,0.00,,,0.00,Rainwise IP-100,2013-09-16 11:07:00,
2013-09-16 04:12:00,81.3,58.0,27.22,NNE,22,4.2,9.0,45,0.00,,,0.00,Rainwise IP-100,2013-09-16 11:12:00,
2013-09-16 04:17:00,81.3,58.0,27.22,North,360,1.9,9.0,45,0.00,,,0.00,Rainwise IP-100,2013-09-16 11:17:00,
2013-09-16 04:22:00,81.2,58.0,27.22,NNW,337,1.9,9.0,45,0.00,,,0.00,Rainwise IP-100,2013-09-16 11:22:00,
2013-09-16 04:27:00,81.1,57.0,27.22,North,360,3.3,8.0,45,0.00,,,0.00,Rainwise IP-100,2013-09-16 11:27:00,
2013-09-16 04:32:00,81.0,57.0,27.22,NNW,337,3.3,9.0,45,0.00,,,0.00,Rainwise IP-100,2013-09-16 11:32:00,
2013-09-16 04:37:00,81.0,57.0,27.23,ENE,67,1.9,9.0,45,0.00,,,0.00,Rainwise IP-100,2013-09-16 11:37:00,
2013-09-16 04:42:00,80.9,57.0,27.23,North,360,4.0,6.0,45,0.00,,,0.00,Rainwise IP-100,2013-09-16 11:42:00,
2013-09-16 04:47:00,80.8,57.0,27.23,North,360,0.0,8.0,45,0.00,,,0.00,Rainwise IP-100,2013-09-16 11:47:00,
2013-09-16 04:52:00,80.7,58.0,27.23,NNW,337,9.3,10.0,46,0.00,,,0.00,Rainwise IP-100,2013-09-16 11:52:00,
2013-09-16 04:57:00,80.6,57.0,27.23,ENE,67,2.6,10.0,46,0.00,,,0.00,Rainwise IP-100,2013-09-16 11:57:00,
2013-09-16 05:02:00,80.7,58.0,27.23,NNE,22,3.5,8.0,46,0.00,,,0.00,Rainwise IP-100,2013-09-16 12:02:00,
2013-09-16 05:07:00,80.8,57.0,27.23,ENE,67,3.0,10.0,45,0.00,,,0.00,Rainwise IP-100,2013-09-16 12:07:00,
2013-09-16 05:12:00,80.8,57.0,27.23,NNW,337,1.9,7.0,45,0.00,,,0.00,Rainwise IP-100,2013-09-16 12:12:00,
2013-09-16 05:17:00,80.7,58.0,27.24,North,360,4.0,10.0,46,0.00,,,0.00,Rainwise IP-100,2013-09-16 12:17:00,
2013-09-16 05:22:00,80.7,58.0,27.23,NNE,22,4.7,14.0,46,0.00,,,0.00,Rainwise IP-100,2013-09-16 12:22:00,
2013-09-16 05:27:00,80.7,58.0,27.23,NNW,337,2.8,11.0,46,0.00,,,0.00,Rainwise IP-100,2013-09-16 12:27:00,
2013-09-16 05:32:00,80.6,57.0,27.23,NNE,22,5.8,9.0,46,0.00,,,0.00,Rainwise IP-100,2013-09-16 12:32:00,
2013-09-16 05:37:00,80.6,57.0,27.23,North,360,4.4,11.0,46,0.00,,,0.00,Rainwise IP-100,2013-09-16 12:37:00,
2013-09-16 05:42:00,80.6,57.0,27.24,NNE,22,4.0,9.0,46,0.00,,,0.00,Rainwise IP-100,2013-09-16 12:42:00,
2013-09-16 05:47:00,80.5,57.0,27.24,North,360,6.5,7.0,46,0.00,,,0.00,Rainwise IP-100,2013-09-16 12:47:00,
2013-09-16 05:52:00,80.4,57.0,27.24,NNE,22,1.6,10.0,46,0.00,,,0.00,Rainwise IP-100,2013-09-16 12:52:00,
2013-09-16 05:57:00,80.5,57.0,27.24,NNE,22,1.9,11.0,46,0.00,,,0.00,Rainwise IP-100,2013-09-16 12:57:00,
2013-09-16 06:02:00,80.5,57.0,27.24,North,360,4.7,9.0,46,0.00,,,0.00,Rainwise IP-100,2013-09-16 13:02:00,
2013-09-16 06:07:00,80.4,57.0,27.24,ENE,67,5.4,12.0,46,0.00,,,0.00,Rainwise IP-100,2013-09-16 13:07:00,
2013-09-16 06:12:00,80.4,57.0,27.24,NNW,337,4.9,8.0,46,0.00,,,0.00,Rainwise IP-100,2013-09-16 13:12:00,
2013-09-16 06:17:00,80.4,57.0,27.24,North,360,1.9,8.0,46,0.00,,,0.00,Rainwise IP-100,2013-09-16 13:17:00,
2013-09-16 06:22:00,80.3,58.0,27.25,NNW,337,5.6,9.0,47,0.00,,,0.00,Rainwise IP-100,2013-09-16 13:22:00,
2013-09-16 06:27:00,80.2,58.0,27.25,NNW,337,1.9,10.0,47,0.00,,,0.00,Rainwise IP-100,2013-09-16 13:27:00,
2013-09-16 06:32:00,80.3,58.0,27.25,NNW,337,7.9,11.0,47,0.00,,,0.00,Rainwise IP-100,2013-09-16 13:32:00,
2013-09-16 06:37:00,80.3,58.0,27.24,NNW,337,4.2,10.0,47,0.00,,,0.00,Rainwise IP-100,2013-09-16 13:37:00,
2013-09-16 06:42:00,80.3,58.0,27.25,NNE,22,4.4,9.0,47,0.00,,,0.00,Rainwise IP-100,2013-09-16 13:42:00,
2013-09-16 06:47:00,80.4,58.0,27.25,NNE,22,2.6,9.0,47,0.00,,,0.00,Rainwise IP-100,2013-09-16 13:47:00,
2013-09-16 06:52:00,80.5,58.0,27.25,NNE,22,1.6,9.0,47,0.00,,,0.00,Rainwise IP-100,2013-09-16 13:52:00,
2013-09-16 06:57:00,80.6,58.0,27.25,NNW,337,3.3,12.0,47,0.00,,,0.00,Rainwise IP-100,2013-09-16 13:57:00,
2013-09-16 07:02:00,80.6,58.0,27.25,NNE,22,9.3,10.0,47,0.00,,,0.00,Rainwise IP-100,2013-09-16 14:02:00,
2013-09-16 07:07:00,80.6,58.0,27.26,North,360,4.0,10.0,47,0.00,,,0.00,Rainwise IP-100,2013-09-16 14:07:00,
2013-09-16 07:12:00,80.8,59.0,27.25,NNE,22,0.0,13.0,47,0.00,,,0.00,Rainwise IP-100,2013-09-16 14:12:00,
2013-09-16 07:17:00,81.0,59.0,27.26,NNE,22,3.0,8.0,47,0.00,,,0.00,Rainwise IP-100,2013-09-16 14:17:00,
2013-09-16 07:22:00,81.5,59.0,27.26,North,360,6.1,8.0,46,0.00,,,0.00,Rainwise IP-100,2013-09-16 14:22:00,
2013-09-16 07:27:00,82.0,59.0,27.25,NNE,22,3.3,8.0,45,0.00,,,0.00,Rainwise IP-100,2013-09-16 14:27:00,
2013-09-16 07:32:00,82.5,58.0,27.25,NE,45,2.8,10.0,44,0.00,,,0.00,Rainwise IP-100,2013-09-16 14:32:00,
2013-09-16 07:37:00,83.0,59.0,27.25,ENE,67,0.0,12.0,44,0.00,,,0.00,Rainwise IP-100,2013-09-16 14:37:00,
2013-09-16 07:42:00,83.3,58.0,27.26,North,360,1.2,12.0,43,0.00,,,0.00,Rainwise IP-100,2013-09-16 14:42:00,
2013-09-16 07:47:00,83.5,59.0,27.26,NNE,22,4.0,9.0,43,0.00,,,0.00,Rainwise IP-100,2013-09-16 14:47:00,
2013-09-16 07:52:00,83.8,59.0,27.26,ENE,67,1.6,11.0,43,0.00,,,0.00,Rainwise IP-100,2013-09-16 14:52:00,
2013-09-16 07:57:00,84.1,59.0,27.26,NNE,22,3.7,10.0,42,0.00,,,0.00,Rainwise IP-100,2013-09-16 14:57:00,
2013-09-16 08:02:00,84.3,59.0,27.26,NNE,22,4.7,9.0,42,0.00,,,0.00,Rainwise IP-100,2013-09-16 15:02:00,
2013-09-16 08:07:00,84.5,59.0,27.26,NNE,22,3.5,11.0,42,0.00,,,0.00,Rainwise IP-100,2013-09-16 15:07:00,
2013-09-16 08:12:00,84.7,59.0,27.26,NNE,22,8.9,8.9,42,0.00,,,0.00,Rainwise IP-100,2013-09-16 15:12:00,
2013-09-16 08:17:00,85.0,59.0,27.26,North,360,3.3,14.0,41,0.00,,,0.00,Rainwise IP-100,2013-09-16 15:17:00,
2013-09-16 08:22:00,85.1,59.0,27.26,North,360,4.7,11.0,41,0.00,,,0.00,Rainwise IP-100,2013-09-16 15:22:00,
2013-09-16 08:27:00,85.2,59.0,27.26,SE,135,1.4,16.0,41,0.00,,,0.00,Rainwise IP-100,2013-09-16 15:27:00,
2013-09-16 08:32:00,85.4,59.0,27.26,NE,45,4.7,10.0,41,0.00,,,0.00,Rainwise IP-100,2013-09-16 15:32:00,
2013-09-16 08:37:00,85.6,59.0,27.27,NNW,337,1.4,11.0,41,0.00,,,0.00,Rainwise IP-100,2013-09-16 15:37:00,
2013-09-16 08:42:00,85.8,59.0,27.26,NNW,337,2.8,14.0,41,0.00,,,0.00,Rainwise IP-100,2013-09-16 15:42:00,
2013-09-16 08:47:00,86.2,60.0,27.27,NNE,22,6.8,8.0,41,0.00,,,0.00,Rainwise IP-100,2013-09-16 15:47:00,
2013-09-16 08:52:00,86.4,59.0,27.27,NNW,337,4.7,9.0,40,0.00,,,0.00,Rainwise IP-100,2013-09-16 15:52:00,
2013-09-16 08:57:00,86.6,59.0,27.27,ENE,67,6.8,9.0,40,0.00,,,0.00,Rainwise IP-100,2013-09-16 15:57:00,
2013-09-16 09:02:00,86.6,59.0,27.27,ENE,67,5.6,13.0,40,0.00,,,0.00,Rainwise IP-100,2013-09-16 16:02:00,
2013-09-16 09:07:00,86.8,59.0,27.27,ENE,67,5.8,12.0,40,0.00,,,0.00,Rainwise IP-100,2013-09-16 16:07:00,
2013-09-16 09:12:00,87.1,60.0,27.27,North,360,7.5,9.0,40,0.00,,,0.00,Rainwise IP-100,2013-09-16 16:12:00,
2013-09-16 09:17:00,87.4,59.0,27.28,East,90,3.7,10.0,39,0.00,,,0.00,Rainwise IP-100,2013-09-16 16:17:00,
2013-09-16 09:22:00,87.8,60.0,27.27,NE,45,4.2,11.0,39,0.00,,,0.00,Rainwise IP-100,2013-09-16 16:22:00,
2013-09-16 09:27:00,88.0,59.0,27.27,ENE,67,3.5,11.0,38,0.00,,,0.00,Rainwise IP-100,2013-09-16 16:27:00,
2013-09-16 09:32:00,88.4,60.0,27.27,NNW,337,2.6,12.0,38,0.00,,,0.00,Rainwise IP-100,2013-09-16 16:32:00,
2013-09-16 09:37:00,88.8,60.0,27.27,ENE,67,1.4,12.0,38,0.00,,,0.00,Rainwise IP-100,2013-09-16 16:37:00,
2013-09-16 09:42:00,89.0,59.0,27.27,North,360,5.8,11.0,37,0.00,,,0.00,Rainwise IP-100,2013-09-16 16:42:00,
2013-09-16 09:47:00,89.0,59.0,27.27,NNE,22,3.5,10.0,37,0.00,,,0.00,Rainwise IP-100,2013-09-16 16:47:00,
2013-09-16 09:52:00,89.3,59.0,27.27,North,360,3.5,10.0,37,0.00,,,0.00,Rainwise IP-100,2013-09-16 16:52:00,
2013-09-16 09:57:00,89.6,60.0,27.27,NE,45,7.0,11.0,37,0.00,,,0.00,Rainwise IP-100,2013-09-16 16:57:00,
2013-09-16 10:00:00,89.6,59.0,27.27,NW,315,2.1,13.0,36,0.00,,,0.00,Rainwise IP-100,2013-09-16 17:00:00,
2013-09-16 10:05:00,89.7,59.0,27.28,North,360,0.0,13.0,36,0.00,,,0.00,Rainwise IP-100,2013-09-16 17:05:00,
2013-09-16 10:10:00,90.1,59.0,27.27,ENE,67,1.9,9.0,36,0.00,,,0.00,Rainwise IP-100,2013-09-16 17:10:00,
2013-09-16 10:15:00,90.6,60.0,27.27,NNE,22,3.7,15.0,36,0.00,,,0.00,Rainwise IP-100,2013-09-16 17:15:00,
2013-09-16 10:20:00,91.0,59.0,27.27,SSE,157,1.6,9.0,35,0.00,,,0.00,Rainwise IP-100,2013-09-16 17:20:00,
2013-09-16 10:25:00,91.1,59.0,27.27,NNE,22,3.3,8.0,35,0.00,,,0.00,Rainwise IP-100,2013-09-16 17:25:00,
2013-09-16 10:30:00,91.2,59.0,27.27,NNW,337,3.0,12.0,34,0.00,,,0.00,Rainwise IP-100,2013-09-16 17:30:00,
2013-09-16 10:35:00,91.4,59.0,27.27,NNE,22,6.8,9.0,34,0.00,,,0.00,Rainwise IP-100,2013-09-16 17:35:00,
2013-09-16 10:40:00,91.7,59.0,27.27,NNW,337,4.2,11.0,34,0.00,,,0.00,Rainwise IP-100,2013-09-16 17:40:00,
2013-09-16 10:45:00,91.6,59.0,27.27,NNE,22,2.1,14.0,34,0.00,,,0.00,Rainwise IP-100,2013-09-16 17:45:00,
2013-09-16 10:50:00,91.8,59.0,27.27,NNW,337,2.3,9.0,34,0.00,,,0.00,Rainwise IP-100,2013-09-16 17:50:00,
2013-09-16 10:55:00,91.9,59.0,27.27,NNE,22,1.2,11.0,34,0.00,,,0.00,Rainwise IP-100,2013-09-16 17:55:00,
2013-09-16 11:00:00,92.1,59.0,27.27,NNE,22,5.8,11.0,34,0.00,,,0.00,Rainwise IP-100,2013-09-16 18:00:00,
2013-09-16 11:05:00,92.7,60.0,27.27,NNE,22,5.6,11.0,34,0.00,,,0.00,Rainwise IP-100,2013-09-16 18:05:00,
2013-09-16 11:10:00,93.0,59.0,27.27,WNW,292,2.3,11.0,33,0.00,,,0.00,Rainwise IP-100,2013-09-16 18:10:00,
2013-09-16 11:15:00,93.2,60.0,27.26,NNE,22,3.3,8.0,33,0.00,,,0.00,Rainwise IP-100,2013-09-16 18:15:00,
2013-09-16 11:20:00,93.6,60.0,27.26,ESE,112,3.5,12.0,33,0.00,,,0.00,Rainwise IP-100,2013-09-16 18:20:00,
2013-09-16 11:25:00,93.9,60.0,27.26,NNE,22,2.3,10.0,32,0.00,,,0.00,Rainwise IP-100,2013-09-16 18:25:00,
2013-09-16 11:30:00,94.1,60.0,27.26,NNE,22,1.6,11.0,32,0.00,,,0.00,Rainwise IP-100,2013-09-16 18:30:00,
2013-09-16 11:35:00,94.2,60.0,27.26,East,90,3.3,9.0,32,0.00,,,0.00,Rainwise IP-100,2013-09-16 18:35:00,
2013-09-16 11:40:00,94.1,59.0,27.26,North,360,3.3,9.0,31,0.00,,,0.00,Rainwise IP-100,2013-09-16 18:40:00,
2013-09-16 11:45:00,94.4,59.0,27.26,NNE,22,5.4,9.0,31,0.00,,,0.00,Rainwise IP-100,2013-09-16 18:45:00,
2013-09-16 11:50:00,94.9,59.0,27.26,ESE,112,3.5,8.0,31,0.00,,,0.00,Rainwise IP-100,2013-09-16 18:50:00,
2013-09-16 11:55:00,95.2,59.0,27.25,NNE,22,2.3,7.0,30,0.00,,,0.00,Rainwise IP-100,2013-09-16 18:55:00,
2013-09-16 12:00:00,95.5,59.0,27.26,NNW,337,4.2,8.0,30,0.00,,,0.00,Rainwise IP-100,2013-09-16 19:00:00,
2013-09-16 12:05:00,95.4,59.0,27.25,NNE,22,2.1,11.0,30,0.00,,,0.00,Rainwise IP-100,2013-09-16 19:05:00,
2013-09-16 12:10:00,95.6,59.0,27.25,NNE,22,4.9,8.0,30,0.00,,,0.00,Rainwise IP-100,2013-09-16 19:10:00,
2013-09-16 12:15:00,95.9,59.0,27.24,NNE,22,5.4,13.0,30,0.00,,,0.00,Rainwise IP-100,2013-09-16 19:15:00,
2013-09-16 12:20:00,95.8,59.0,27.24,NNW,337,2.1,9.0,30,0.00,,,0.00,Rainwise IP-100,2013-09-16 19:20:00,
2013-09-16 12:25:00,96.0,59.0,27.24,NNW,337,1.6,7.0,30,0.00,,,0.00,Rainwise IP-100,2013-09-16 19:25:00,
2013-09-16 12:30:00,96.5,59.0,27.24,NNE,22,2.6,10.0,29,0.00,,,0.00,Rainwise IP-100,2013-09-16 19:30:00,
2013-09-16 12:35:00,96.5,59.0,27.24,ESE,112,1.6,12.0,29,0.00,,,0.00,Rainwise IP-100,2013-09-16 19:35:00,
2013-09-16 12:40:00,97.0,59.0,27.24,NNE,22,5.4,6.0,29,0.00,,,0.00,Rainwise IP-100,2013-09-16 19:40:00,
2013-09-16 12:45:00,97.3,60.0,27.24,NNE,22,0.0,9.0,29,0.00,,,0.00,Rainwise IP-100,2013-09-16 19:45:00,
2013-09-16 12:50:00,97.2,60.0,27.23,NNW,337,0.0,8.0,29,0.00,,,0.00,Rainwise IP-100,2013-09-16 19:50:00,
2013-09-16 12:53:00,97.5,60.0,27.23,NNE,22,1.6,6.0,29,0.00,,,0.00,Rainwise IP-100,2013-09-16 19:53:00,
2013-09-16 12:58:00,97.9,59.0,27.23,NE,45,0.0,6.0,28,0.00,,,0.00,Rainwise IP-100,2013-09-16 19:58:00,
2013-09-16 13:03:00,98.0,59.0,27.23,ENE,67,1.4,7.0,28,0.00,,,0.00,Rainwise IP-100,2013-09-16 20:03:00,
2013-09-16 13:08:00,97.9,59.0,27.22,ESE,112,1.2,7.0,28,0.00,,,0.00,Rainwise IP-100,2013-09-16 20:08:00,
2013-09-16 13:13:00,98.2,58.0,27.22,ESE,112,2.1,4.0,27,0.00,,,0.00,Rainwise IP-100,2013-09-16 20:13:00,
2013-09-16 13:18:00,98.5,59.0,27.22,ENE,67,2.6,6.0,27,0.00,,,0.00,Rainwise IP-100,2013-09-16 20:18:00,
2013-09-16 13:23:00,97.8,58.0,27.21,NE,45,2.6,6.0,27,0.00,,,0.00,Rainwise IP-100,2013-09-16 20:23:00,
2013-09-16 13:28:00,96.6,57.0,27.22,NNE,22,3.3,4.0,27,0.00,,,0.00,Rainwise IP-100,2013-09-16 20:28:00,
2013-09-16 13:33:00,95.5,57.0,27.21,ESE,112,2.3,8.0,28,0.00,,,0.00,Rainwise IP-100,2013-09-16 20:33:00,
2013-09-16 13:38:00,94.6,56.0,27.21,NE,45,1.9,4.0,28,0.00,,,0.00,Rainwise IP-100,2013-09-16 20:38:00,
2013-09-16 13:43:00,94.2,57.0,27.21,North,360,0.0,6.0,29,0.00,,,0.00,Rainwise IP-100,2013-09-16 20:43:00,
2013-09-16 13:48:00,94.1,57.0,27.20,NNW,337,1.4,4.0,29,0.00,,,0.00,Rainwise IP-100,2013-09-16 20:48:00,
2013-09-16 13:53:00,94.0,57.0,27.20,NNW,337,1.4,3.0,29,0.00,,,0.00,Rainwise IP-100,2013-09-16 20:53:00,
2013-09-16 13:58:00,93.8,56.0,27.20,ESE,112,0.0,3.0,29,0.00,,,0.00,Rainwise IP-100,2013-09-16 20:58:00,
2013-09-16 14:03:00,93.5,57.0,27.20,NNW,337,1.6,2.0,30,0.00,,,0.00,Rainwise IP-100,2013-09-16 21:03:00,
2013-09-16 14:08:00,93.6,57.0,27.20,NNW,337,0.0,1.0,30,0.00,,,0.00,Rainwise IP-100,2013-09-16 21:08:00,
2013-09-16 14:13:00,93.6,57.0,27.20,North,360,2.6,2.6,30,0.00,,,0.00,Rainwise IP-100,2013-09-16 21:13:00,
2013-09-16 14:18:00,93.4,57.0,27.20,NNW,337,2.6,4.0,30,0.00,,,0.00,Rainwise IP-100,2013-09-16 21:18:00,
2013-09-16 14:23:00,93.4,57.0,27.19,NNW,337,0.0,4.0,30,0.00,,,0.00,Rainwise IP-100,2013-09-16 21:23:00,
2013-09-16 14:28:00,93.9,57.0,27.19,NNW,337,2.3,4.0,30,0.00,,,0.00,Rainwise IP-100,2013-09-16 21:28:00,
2013-09-16 14:33:00,94.5,58.0,27.19,NE,45,0.0,3.0,30,0.00,,,0.00,Rainwise IP-100,2013-09-16 21:33:00,
2013-09-16 14:38:00,94.8,59.0,27.18,NE,45,0.0,1.0,30,0.00,,,0.00,Rainwise IP-100,2013-09-16 21:38:00,
2013-09-16 14:43:00,94.7,59.0,27.19,NE,45,0.0,2.0,30,0.00,,,0.00,Rainwise IP-100,2013-09-16 21:43:00,
2013-09-16 14:48:00,94.8,57.0,27.19,SE,135,1.2,4.0,29,0.00,,,0.00,Rainwise IP-100,2013-09-16 21:48:00,
2013-09-16 14:53:00,95.6,57.0,27.19,SSE,157,2.6,4.0,28,0.00,,,0.00,Rainwise IP-100,2013-09-16 21:53:00,
2013-09-16 14:58:00,96.4,56.0,27.18,ESE,112,1.2,5.0,26,0.00,,,0.00,Rainwise IP-100,2013-09-16 21:58:00,
2013-09-16 15:03:00,97.3,56.0,27.18,East,90,0.0,4.0,25,0.00,,,0.00,Rainwise IP-100,2013-09-16 22:03:00,
2013-09-16 15:08:00,98.5,57.0,27.18,NNE,22,1.6,4.0,26,0.00,,,0.00,Rainwise IP-100,2013-09-16 22:08:00,
2013-09-16 15:13:00,99.4,57.0,27.18,NNW,337,0.0,3.0,25,0.00,,,0.00,Rainwise IP-100,2013-09-16 22:13:00,
2013-09-16 15:18:00,100.1,56.0,27.18,NE,45,3.3,6.0,24,0.00,,,0.00,Rainwise IP-100,2013-09-16 22:18:00,
2013-09-16 15:23:00,100.5,56.0,27.17,NNW,337,0.0,4.0,23,0.00,,,0.00,Rainwise IP-100,2013-09-16 22:23:00,
2013-09-16 15:28:00,100.7,53.0,27.17,NW,315,1.6,5.0,21,0.00,,,0.00,Rainwise IP-100,2013-09-16 22:28:00,
2013-09-16 15:33:00,100.5,53.0,27.17,NNW,337,0.0,5.0,21,0.00,,,0.00,Rainwise IP-100,2013-09-16 22:33:00,
2013-09-16 15:38:00,99.8,53.0,27.17,ENE,67,0.0,5.0,21,0.00,,,0.00,Rainwise IP-100,2013-09-16 22:38:00,
2013-09-16 15:43:00,99.7,54.0,27.17,SE,135,4.0,4.0,22,0.00,,,0.00,Rainwise IP-100,2013-09-16 22:43:00,
2013-09-16 15:48:00,99.4,54.0,27.16,ESE,112,0.0,4.0,22,0.00,,,0.00,Rainwise IP-100,2013-09-16 22:48:00,
2013-09-16 15:53:00,99.5,54.0,27.17,ESE,112,2.3,4.0,22,0.00,,,0.00,Rainwise IP-100,2013-09-16 22:53:00,
2013-09-16 15:58:00,99.7,53.0,27.17,ESE,112,2.8,7.0,21,0.00,,,0.00,Rainwise IP-100,2013-09-16 22:58:00,
2013-09-16 16:03:00,99.6,54.0,27.16,ENE,67,1.2,5.0,22,0.00,,,0.00,Rainwise IP-100,2013-09-16 23:03:00,
2013-09-16 16:08:00,99.5,55.0,27.17,ENE,67,0.0,4.0,23,0.00,,,0.00,Rainwise IP-100,2013-09-16 23:08:00,
2013-09-16 16:13:00,99.6,55.0,27.17,NNW,337,0.0,7.0,23,0.00,,,0.00,Rainwise IP-100,2013-09-16 23:13:00,
2013-09-16 16:18:00,99.7,56.0,27.16,ENE,67,2.8,6.0,24,0.00,,,0.00,Rainwise IP-100,2013-09-16 23:18:00,
2013-09-16 16:23:00,99.4,56.0,27.16,ENE,67,2.3,7.0,24,0.00,,,0.00,Rainwise IP-100,2013-09-16 23:23:00,
2013-09-16 16:28:00,99.0,56.0,27.17,NE,45,3.0,6.0,24,0.00,,,0.00,Rainwise IP-100,2013-09-16 23:28:00,
2013-09-16 16:33:00,98.6,55.0,27.17,WSW,247,0.0,5.0,24,0.00,,,0.00,Rainwise IP-100,2013-09-16 23:33:00,
2013-09-16 16:38:00,98.4,55.0,27.16,ENE,67,0.0,5.0,24,0.00,,,0.00,Rainwise IP-100,2013-09-16 23:38:00,
2013-09-16 16:43:00,98.0,55.0,27.17,ENE,67,1.2,6.0,24,0.00,,,0.00,Rainwise IP-100,2013-09-16 23:43:00,
2013-09-16 16:48:00,97.9,55.0,27.16,SSW,202,0.0,6.0,24,0.00,,,0.00,Rainwise IP-100,2013-09-16 23:48:00,
2013-09-16 16:53:00,98.2,56.0,27.17,SSE,157,1.9,4.0,25,0.00,,,0.00,Rainwise IP-100,2013-09-16 23:53:00,
2013-09-16 16:58:00,97.9,55.0,27.17,ESE,112,1.6,5.0,24,0.00,,,0.00,Rainwise IP-100,2013-09-16 23:58:00,
2013-09-16 17:03:00,97.6,54.0,27.17,SE,135,1.9,5.0,24,0.00,,,0.00,Rainwise IP-100,2013-09-17 00:03:00,
2013-09-16 17:08:00,97.5,53.0,27.17,ENE,67,3.7,5.0,23,0.00,,,0.00,Rainwise IP-100,2013-09-17 00:08:00,
2013-09-16 17:13:00,97.4,53.0,27.17,NNW,337,2.6,5.0,23,0.00,,,0.00,Rainwise IP-100,2013-09-17 00:13:00,
2013-09-16 17:18:00,97.1,53.0,27.16,East,90,0.0,5.0,23,0.00,,,0.00,Rainwise IP-100,2013-09-17 00:18:00,
2013-09-16 17:23:00,96.6,53.0,27.16,SSE,157,1.6,4.0,23,0.00,,,0.00,Rainwise IP-100,2013-09-17 00:23:00,
2013-09-16 17:28:00,95.8,53.0,27.17,NNE,22,0.0,6.0,24,0.00,,,0.00,Rainwise IP-100,2013-09-17 00:28:00,
2013-09-16 17:33:00,95.2,53.0,27.16,ENE,67,2.8,4.0,24,0.00,,,0.00,Rainwise IP-100,2013-09-17 00:33:00,
2013-09-16 17:38:00,94.7,53.0,27.16,East,90,1.4,5.0,24,0.00,,,0.00,Rainwise IP-100,2013-09-17 00:38:00,
2013-09-16 17:43:00,94.4,53.0,27.16,NNE,22,0.0,4.0,25,0.00,,,0.00,Rainwise IP-100,2013-09-17 00:43:00,
2013-09-16 17:48:00,94.4,54.0,27.16,SSW,202,2.1,5.0,26,0.00,,,0.00,Rainwise IP-100,2013-09-17 00:48:00,
2013-09-16 17:53:00,94.2,55.0,27.16,North,360,2.3,5.0,27,0.00,,,0.00,Rainwise IP-100,2013-09-17 00:53:00,
2013-09-16 17:58:00,93.8,56.0,27.16,ESE,112,2.1,7.0,28,0.00,,,0.00,Rainwise IP-100,2013-09-17 00:58:00,
2013-09-16 18:03:00,93.4,56.0,27.17,ENE,67,1.9,6.0,29,0.00,,,0.00,Rainwise IP-100,2013-09-17 01:03:00,
2013-09-16 18:08:00,92.9,56.0,27.16,NNE,22,1.4,6.0,29,0.00,,,0.00,Rainwise IP-100,2013-09-17 01:08:00,
2013-09-16 18:13:00,92.3,56.0,27.17,East,90,3.5,6.0,30,0.00,,,0.00,Rainwise IP-100,2013-09-17 01:13:00,
2013-09-16 18:18:00,91.9,56.0,27.17,NNW,337,1.4,7.0,30,0.00,,,0.00,Rainwise IP-100,2013-09-17 01:18:00,
2013-09-16 18:23:00,91.5,56.0,27.17,North,360,1.2,6.0,30,0.00,,,0.00,Rainwise IP-100,2013-09-17 01:23:00,
2013-09-16 18:28:00,91.1,56.0,27.17,NNE,22,0.0,6.0,31,0.00,,,0.00,Rainwise IP-100,2013-09-17 01:28:00,
2013-09-16 18:33:00,90.9,56.0,27.17,ENE,67,0.0,6.0,31,0.00,,,0.00,Rainwise IP-100,2013-09-17 01:33:00,
2013-09-16 18:38:00,90.6,56.0,27.17,ENE,67,0.0,5.0,31,0.00,,,0.00,Rainwise IP-100,2013-09-17 01:38:00,
2013-09-16 18:43:00,90.4,56.0,27.17,NNE,22,1.2,5.0,32,0.00,,,0.00,Rainwise IP-100,2013-09-17 01:43:00,
2013-09-16 18:48:00,90.2,56.0,27.17,NNE,22,1.9,4.0,32,0.00,,,0.00,Rainwise IP-100,2013-09-17 01:48:00,
2013-09-16 18:53:00,90.1,57.0,27.18,ENE,67,3.7,4.0,33,0.00,,,0.00,Rainwise IP-100,2013-09-17 01:53:00,
2013-09-16 18:58:00,90.1,57.0,27.18,ENE,67,6.3,8.0,33,0.00,,,0.00,Rainwise IP-100,2013-09-17 01:58:00,
2013-09-16 19:03:00,90.2,57.0,27.17,North,360,2.1,7.0,33,0.00,,,0.00,Rainwise IP-100,2013-09-17 02:03:00,
2013-09-16 19:08:00,90.2,57.0,27.18,NNE,22,4.0,7.0,33,0.00,,,0.00,Rainwise IP-100,2013-09-17 02:08:00,
2013-09-16 19:13:00,90.0,57.0,27.18,NNE,22,2.8,7.0,33,0.00,,,0.00,Rainwise IP-100,2013-09-17 02:13:00,
2013-09-16 19:18:00,89.9,57.0,27.18,NE,45,1.9,8.0,33,0.00,,,0.00,Rainwise IP-100,2013-09-17 02:18:00,
2013-09-16 19:23:00,89.7,57.0,27.18,NNE,22,2.1,7.0,33,0.00,,,0.00,Rainwise IP-100,2013-09-17 02:23:00,
2013-09-16 19:28:00,89.6,56.0,27.18,NNE,22,3.3,5.0,33,0.00,,,0.00,Rainwise IP-100,2013-09-17 02:28:00,
2013-09-16 19:33:00,89.4,56.0,27.19,NNE,22,1.2,7.0,33,0.00,,,0.00,Rainwise IP-100,2013-09-17 02:33:00,
2013-09-16 19:38:00,89.3,56.0,27.19,NNE,22,3.7,9.0,33,0.00,,,0.00,Rainwise IP-100,2013-09-17 02:38:00,
2013-09-16 19:43:00,89.3,56.0,27.19,NNE,22,3.3,7.0,33,0.00,,,0.00,Rainwise IP-100,2013-09-17 02:43:00,
2013-09-16 19:48:00,89.2,56.0,27.19,NNE,22,2.3,8.0,33,0.00,,,0.00,Rainwise IP-100,2013-09-17 02:48:00,
2013-09-16 19:53:00,89.0,56.0,27.20,ENE,67,1.4,5.0,33,0.00,,,0.00,Rainwise IP-100,2013-09-17 02:53:00,
2013-09-16 19:58:00,88.8,56.0,27.20,NNW,337,1.6,10.0,33,0.00,,,0.00,Rainwise IP-100,2013-09-17 02:58:00,
2013-09-16 20:03:00,88.5,56.0,27.20,NNE,22,5.6,13.0,34,0.00,,,0.00,Rainwise IP-100,2013-09-17 03:03:00,
2013-09-16 20:08:00,88.2,56.0,27.20,NE,45,2.3,7.0,34,0.00,,,0.00,Rainwise IP-100,2013-09-17 03:08:00,
2013-09-16 20:13:00,87.9,57.0,27.19,North,360,2.6,9.0,35,0.00,,,0.00,Rainwise IP-100,2013-09-17 03:13:00,
2013-09-16 20:18:00,87.6,57.0,27.20,NE,45,2.1,8.0,36,0.00,,,0.00,Rainwise IP-100,2013-09-17 03:18:00,
2013-09-16 20:23:00,87.3,57.0,27.20,ENE,67,2.6,7.0,36,0.00,,,0.00,Rainwise IP-100,2013-09-17 03:23:00,
2013-09-16 20:28:00,87.1,56.0,27.21,ENE,67,3.5,5.0,36,0.00,,,0.00,Rainwise IP-100,2013-09-17 03:28:00,
2013-09-16 20:33:00,86.8,57.0,27.20,NNE,22,0.0,11.0,37,0.00,,,0.00,Rainwise IP-100,2013-09-17 03:33:00,
2013-09-16 20:38:00,86.6,57.0,27.21,North,360,3.7,5.0,37,0.00,,,0.00,Rainwise IP-100,2013-09-17 03:38:00,
2013-09-16 20:43:00,86.5,57.0,27.20,NNE,22,4.9,8.0,37,0.00,,,0.00,Rainwise IP-100,2013-09-17 03:43:00,
2013-09-16 20:48:00,86.4,57.0,27.21,NNW,337,2.3,8.0,38,0.00,,,0.00,Rainwise IP-100,2013-09-17 03:48:00,
2013-09-16 20:53:00,86.2,57.0,27.20,ENE,67,3.5,6.0,38,0.00,,,0.00,Rainwise IP-100,2013-09-17 03:53:00,
2013-09-16 20:58:00,86.1,57.0,27.21,NNW,337,3.3,9.0,38,0.00,,,0.00,Rainwise IP-100,2013-09-17 03:58:00,
2013-09-16 21:01:00,86.1,57.0,27.21,ENE,67,5.6,9.0,38,0.00,,,0.00,Rainwise IP-100,2013-09-17 04:01:00,
2013-09-16 21:06:00,86.1,57.0,27.21,NNW,337,1.4,7.0,38,0.00,,,0.00,Rainwise IP-100,2013-09-17 04:06:00,
2013-09-16 21:11:00,86.1,57.0,27.22,NNE,22,3.0,8.0,38,0.00,,,0.00,Rainwise IP-100,2013-09-17 04:11:00,
2013-09-16 21:16:00,86.0,57.0,27.21,NNE,22,3.0,9.0,38,0.00,,,0.00,Rainwise IP-100,2013-09-17 04:16:00,
2013-09-16 21:21:00,85.8,57.0,27.21,NNE,22,5.4,9.0,38,0.00,,,0.00,Rainwise IP-100,2013-09-17 04:21:00,
2013-09-16 21:26:00,85.8,57.0,27.22,NNW,337,4.4,10.0,39,0.00,,,0.00,Rainwise IP-100,2013-09-17 04:26:00,
2013-09-16 21:31:00,85.8,57.0,27.22,NNE,22,3.3,8.0,39,0.00,,,0.00,Rainwise IP-100,2013-09-17 04:31:00,
2013-09-16 21:36:00,85.7,57.0,27.22,NNE,22,1.9,6.0,39,0.00,,,0.00,Rainwise IP-100,2013-09-17 04:36:00,
2013-09-16 21:41:00,85.6,57.0,27.22,NNE,22,2.8,5.0,39,0.00,,,0.00,Rainwise IP-100,2013-09-17 04:41:00,
2013-09-16 21:46:00,85.5,57.0,27.23,NNE,22,1.4,7.0,39,0.00,,,0.00,Rainwise IP-100,2013-09-17 04:46:00,
2013-09-16 21:51:00,85.4,57.0,27.22,North,360,4.2,10.0,39,0.00,,,0.00,Rainwise IP-100,2013-09-17 04:51:00,
2013-09-16 21:56:00,85.4,57.0,27.22,ENE,67,2.1,9.0,39,0.00,,,0.00,Rainwise IP-100,2013-09-17 04:56:00,
2013-09-16 22:01:00,85.3,57.0,27.22,North,360,1.9,8.0,39,0.00,,,0.00,Rainwise IP-100,2013-09-17 05:01:00,
2013-09-16 22:06:00,85.1,57.0,27.23,North,360,4.0,9.0,39,0.00,,,0.00,Rainwise IP-100,2013-09-17 05:06:00,
2013-09-16 22:11:00,85.2,57.0,27.23,North,360,4.2,7.0,39,0.00,,,0.00,Rainwise IP-100,2013-09-17 05:11:00,
2013-09-16 22:16:00,85.4,57.0,27.23,NNE,22,7.0,7.0,39,0.00,,,0.00,Rainwise IP-100,2013-09-17 05:16:00,
2013-09-16 22:21:00,85.4,57.0,27.23,NNE,22,4.9,12.0,39,0.00,,,0.00,Rainwise IP-100,2013-09-17 05:21:00,
2013-09-16 22:26:00,85.3,57.0,27.22,NNE,22,2.3,8.0,39,0.00,,,0.00,Rainwise IP-100,2013-09-17 05:26:00,
2013-09-16 22:31:00,85.1,57.0,27.23,NNW,337,5.6,7.0,39,0.00,,,0.00,Rainwise IP-100,2013-09-17 05:31:00,
2013-09-16 22:36:00,85.0,57.0,27.23,North,360,0.0,8.0,40,0.00,,,0.00,Rainwise IP-100,2013-09-17 05:36:00,
2013-09-16 22:41:00,84.9,57.0,27.24,NNE,22,3.3,7.0,40,0.00,,,0.00,Rainwise IP-100,2013-09-17 05:41:00,
2013-09-16 22:46:00,84.8,57.0,27.23,NNW,337,0.0,8.0,40,0.00,,,0.00,Rainwise IP-100,2013-09-17 05:46:00,
2013-09-16 22:51:00,84.7,57.0,27.24,NNW,337,4.0,7.0,40,0.00,,,0.00,Rainwise IP-100,2013-09-17 05:51:00,
2013-09-16 22:56:00,84.7,57.0,27.24,ESE,112,2.6,9.0,40,0.00,,,0.00,Rainwise IP-100,2013-09-17 05:56:00,
2013-09-16 23:01:00,84.7,57.0,27.24,NE,45,3.0,9.0,40,0.00,,,0.00,Rainwise IP-100,2013-09-17 06:01:00,
2013-09-16 23:06:00,84.6,57.0,27.24,NNE,22,3.0,6.0,40,0.00,,,0.00,Rainwise IP-100,2013-09-17 06:06:00,
2013-09-16 23:11:00,84.4,57.0,27.24,NNE,22,1.2,8.0,40,0.00,,,0.00,Rainwise IP-100,2013-09-17 06:11:00,
2013-09-16 23:16:00,84.3,58.0,27.24,NNE,22,3.5,7.0,41,0.00,,,0.00,Rainwise IP-100,2013-09-17 06:16:00,
2013-09-16 23:21:00,84.2,58.0,27.24,North,360,2.6,8.0,41,0.00,,,0.00,Rainwise IP-100,2013-09-17 06:21:00,
2013-09-16 23:26:00,84.1,57.0,27.24,NNW,337,1.9,7.0,41,0.00,,,0.00,Rainwise IP-100,2013-09-17 06:26:00,
2013-09-16 23:31:00,84.0,57.0,27.24,NNE,22,4.0,10.0,41,0.00,,,0.00,Rainwise IP-100,2013-09-17 06:31:00,
2013-09-16 23:36:00,84.0,57.0,27.24,NE,45,2.3,9.0,41,0.00,,,0.00,Rainwise IP-100,2013-09-17 06:36:00,
2013-09-16 23:41:00,84.0,57.0,27.24,NNE,22,3.7,13.0,41,0.00,,,0.00,Rainwise IP-100,2013-09-17 06:41:00,
2013-09-16 23:46:00,83.9,57.0,27.24,ENE,67,6.5,13.0,41,0.00,,,0.00,Rainwise IP-100,2013-09-17 06:46:00,
2013-09-16 23:51:00,83.8,57.0,27.24,NNE,22,7.7,7.7,41,0.00,,,0.00,Rainwise IP-100,2013-09-17 06:51:00,
2013-09-16 23:56:00,83.7,58.0,27.24,North,360,1.6,10.0,42,0.00,,,0.00,Rainwise IP-100,2013-09-17 06:56:00,